EW4685 Weather Reports


Display with metric or nautical units.
time (UTC)temp
F
wind
direction
speed
MPH
gust
MPH
rain 1hr
in
rain 24hr
in
rain mn
in
humidity
%
barometer
mb
20260904190407 49 52 0.0 0.0 0.00 0.00 0.00 87 1014.8
20260904185858 49 52 0.0 0.0 0.00 0.00 0.00 86 1014.8
20260904185353 50 52 0.0 0.0 0.00 0.00 0.00 85 1015.0
20260904184847 50 52 0.0 0.0 0.00 0.00 0.00 86 1015.0
20260904184343 50 52 1.0 3.0 0.00 0.00 0.00 86 1014.7
20260904183836 50 24 1.0 3.0 0.00 0.00 0.00 87 1014.6
20260904183330 50 42 0.0 2.0 0.00 0.00 0.00 86 1014.5
20260904182825 50 43 0.0 1.0 0.00 0.00 0.00 85 1014.6
20260904182539 50 43 0.0 1.0 0.00 0.00 0.00 85 1014.6
20260904181817 51 341 0.0 2.0 0.00 0.00 0.00 84 1014.6
20260904181316 51 341 0.0 2.0 0.00 0.00 0.00 84 1014.4
20260904180817 51 327 0.0 3.0 0.00 0.00 0.00 84 1014.3
20260904180317 51 273 0.0 3.0 0.00 0.00 0.00 84 1014.4
20260904180301 51 289 0.0 3.0 0.00 0.00 0.00 84 1014.5
20260904175315 51 354 0.0 2.0 0.00 0.00 0.00 84 1014.5
20260904174813 51 29 1.0 6.0 0.00 0.00 0.00 84 1014.6
20260904174311 51 354 1.0 6.0 0.00 0.00 0.00 84 1014.7
20260904173813 51 59 0.0 2.0 0.00 0.00 0.00 85 1014.8
20260904173310 51 52 1.0 3.0 0.00 0.00 0.00 85 1014.8
20260904172809 51 13 1.0 3.0 0.00 0.00 0.00 85 1015.0
20260904172526 51 47 0.0 3.0 0.00 0.00 0.00 85 1014.7
20260904171806 51 33 0.0 4.0 0.00 0.00 0.00 85 1014.8
20260904171306 51 85 1.0 5.0 0.00 0.00 0.00 86 1014.7
20260904170805 50 39 1.0 5.0 0.00 0.00 0.00 86 1015.0
20260904170306 50 38 2.0 6.0 0.00 0.00 0.00 86 1015.1
20260904165801 50 41 2.0 6.0 0.00 0.00 0.00 86 1015.2
20260904165301 50 39 1.0 5.0 0.00 0.00 0.00 86 1015.2
20260904164802 50 43 1.0 3.0 0.00 0.00 0.00 86 1015.4
20260904164303 50 13 1.0 4.0 0.00 0.00 0.00 86 1015.6
20260904163801 50 59 2.0 4.0 0.00 0.00 0.00 86 1015.6
20260904163524 50 8 1.0 4.0 0.00 0.00 0.00 86 1015.4
20260904162801 50 25 1.0 4.0 0.00 0.00 0.00 86 1015.5
20260904162300 50 3 1.0 4.0 0.00 0.00 0.00 86 1015.5
20260904161802 50 339 1.0 4.0 0.00 0.00 0.00 87 1015.6
20260904161257 50 13 1.0 4.0 0.00 0.00 0.00 87 1015.6
20260904161246 50 22 0.0 3.0 0.00 0.00 0.00 86 1015.9
20260904160257 51 36 0.0 3.0 0.00 0.00 0.00 86 1016.0
20260904155756 51 311 1.0 5.0 0.00 0.00 0.00 85 1016.2
20260904155256 51 355 1.0 5.0 0.00 0.00 0.00 86 1016.3
20260904154756 51 14 1.0 5.0 0.00 0.00 0.00 86 1016.1
20260904154257 51 358 2.0 9.0 0.00 0.00 0.00 86 1016.0
20260904153758 51 25 2.0 9.0 0.00 0.00 0.00 86 1016.0
20260904153257 51 32 2.0 8.0 0.00 0.00 0.00 86 1016.1
20260904152757 51 29 2.0 8.0 0.00 0.00 0.00 87 1016.2
20260904152256 50 352 0.0 4.0 0.00 0.00 0.00 87 1016.3
20260904151757 50 328 0.0 4.0 0.00 0.00 0.00 87 1016.3
20260904151255 50 40 2.0 10.0 0.00 0.00 0.00 88 1016.3
20260904150755 50 337 3.0 10.0 0.00 0.00 0.00 88 1016.3
20260904150517 50 25 2.0 6.0 0.00 0.00 0.00 88 1016.3
20260904145755 50 12 1.0 5.0 0.00 0.00 0.00 88 1016.4
20260904145255 50 12 1.0 4.0 0.00 0.00 0.00 87 1016.3
20260904144755 50 351 2.0 6.0 0.00 0.00 0.00 87 1016.7
20260904144520 50 42 3.0 6.0 0.00 0.00 0.00 87 1016.7
20260904143754 51 57 3.0 7.0 0.00 0.00 0.00 86 1016.5
20260904143254 51 42 3.0 7.0 0.00 0.00 0.00 86 1016.7
20260904142755 51 29 2.0 7.0 0.00 0.00 0.00 86 1016.8
20260904142248 51 359 1.0 6.0 0.00 0.00 0.00 86 1016.8
20260904141742 51 31 1.0 4.0 0.00 0.00 0.00 86 1016.7
20260904141235 51 34 1.0 6.0 0.00 0.00 0.00 86 1016.8
20260904140951 51 55 1.0 6.0 0.00 0.00 0.00 86 1016.8
20260904140225 51 297 1.0 5.0 0.00 0.00 0.00 86 1016.8
20260904135718 51 321 1.0 5.0 0.00 0.00 0.00 86 1016.8
20260904135212 51 61 1.0 6.0 0.00 0.00 0.00 86 1016.8
20260904134711 51 14 1.0 8.0 0.00 0.00 0.00 86 1016.8
20260904134212 51 322 1.0 8.0 0.00 0.00 0.00 86 1016.9
20260904133655 51 53 1.0 5.0 0.00 0.00 0.00 86 1016.8
20260904133150 51 45 1.0 5.0 0.00 0.00 0.00 86 1016.7
20260904132920 51 38 1.0 4.0 0.00 0.00 0.00 86 1016.8
20260904132137 51 56 1.0 3.0 0.00 0.00 0.00 87 1016.8
20260904131631 51 53 0.0 3.0 0.00 0.00 0.00 87 1016.9
20260904131124 51 48 0.0 1.0 0.00 0.00 0.00 87 1016.9
20260904130618 51 50 0.0 1.0 0.00 0.00 0.00 87 1017.0
20260904130111 51 40 0.0 3.0 0.00 0.00 0.00 86 1017.2
20260904125605 51 64 0.0 3.0 0.00 0.00 0.00 86 1017.3
20260904125059 51 48 0.0 3.0 0.00 0.00 0.00 86 1017.4
20260904124554 51 62 0.0 3.0 0.00 0.00 0.00 86 1017.4
20260904124046 51 38 0.0 5.0 0.00 0.00 0.00 85 1017.5
20260904123547 52 52 1.0 5.0 0.00 0.00 0.00 85 1017.6
20260904123047 52 48 1.0 5.0 0.00 0.00 0.00 85 1017.6
20260904122547 52 43 1.0 4.0 0.00 0.00 0.00 85 1017.8
20260904122529 52 40 0.0 2.0 0.00 0.00 0.00 84 1017.7
20260904122039 52 54 0.0 2.0 0.00 0.00 0.00 84 1017.8
20260904121043 52 55 0.0 3.0 0.00 0.00 0.00 83 1017.8
20260904120543 53 55 0.0 3.0 0.00 0.00 0.00 83 1017.9
20260904120043 53 55 0.0 2.0 0.00 0.00 0.00 82 1018.0
20260904115544 53 62 0.0 2.0 0.00 0.00 0.00 82 1018.0
20260904115039 53 30 0.0 0.0 0.00 0.00 0.00 81 1018.0
20260904114802 54 312 0.0 3.0 0.00 0.00 0.00 80 1018.0
20260904114259 54 57 1.0 5.0 0.00 0.00 0.00 80 1018.1
20260904113535 54 51 1.0 7.0 0.00 0.00 0.00 79 1018.2
20260904113035 54 57 1.0 7.0 0.00 0.00 0.00 79 1018.2
20260904112534 54 86 1.0 5.0 0.00 0.00 0.00 79 1018.4
20260904112035 54 40 1.0 5.0 0.00 0.00 0.00 78 1018.5
20260904111535 54 44 0.0 4.0 0.00 0.00 0.00 78 1018.5
20260904111035 54 58 1.0 4.0 0.00 0.00 0.00 78 1018.5
20260904110535 54 62 1.0 5.0 0.00 0.00 0.00 78 1018.5
20260904110035 54 52 1.0 5.0 0.00 0.00 0.00 77 1018.6
20260904105534 54 32 1.0 8.0 0.00 0.00 0.00 76 1018.7
20260904105034 54 37 1.0 8.0 0.00 0.00 0.00 76 1018.7
20260904104534 54 38 0.0 6.0 0.00 0.00 0.00 76 1018.7
20260904104034 54 44 1.0 6.0 0.00 0.00 0.00 75 1018.7
20260904103534 54 337 2.0 6.0 0.00 0.00 0.00 75 1018.7
20260904103300 54 355 1.0 5.0 0.00 0.00 0.00 75 1018.7
20260904102535 54 50 1.0 5.0 0.00 0.00 0.00 75 1018.5
20260904102035 54 3 1.0 5.0 0.00 0.00 0.00 74 1018.6
20260904101535 54 52 0.0 4.0 0.00 0.00 0.00 74 1018.6
20260904101035 54 30 0.0 2.0 0.00 0.00 0.00 74 1018.6
20260904100528 54 26 1.0 4.0 0.00 0.00 0.00 74 1018.6
20260904100021 55 30 1.0 6.0 0.00 0.00 0.00 73 1018.6
20260904095513 55 38 1.0 6.0 0.00 0.00 0.00 73 1018.6
20260904095008 55 41 1.0 4.0 0.00 0.00 0.00 72 1018.5
20260904094501 55 327 0.0 5.0 0.00 0.00 0.00 72 1018.5
20260904094221 55 321 1.0 6.0 0.00 0.00 0.00 71 1018.5
20260904093450 55 33 1.0 5.0 0.00 0.00 0.00 71 1018.4
20260904092943 55 3 1.0 5.0 0.00 0.00 0.00 71 1018.4
20260904092436 55 18 1.0 5.0 0.00 0.00 0.00 71 1018.5
20260904091930 55 40 0.0 4.0 0.00 0.00 0.00 72 1018.4
20260904091424 55 38 0.0 3.0 0.00 0.00 0.00 71 1018.5
20260904090920 55 294 0.0 3.0 0.00 0.00 0.00 71 1018.5
20260904090412 55 310 0.0 1.0 0.00 0.00 0.00 71 1018.5
20260904085906 55 38 0.0 0.0 0.00 0.00 0.00 71 1018.4
20260904085400 55 38 0.0 0.0 0.00 0.00 0.00 70 1018.6
20260904085115 56 38 0.0 2.0 0.00 0.00 0.00 69 1018.6
20260904084607 56 38 0.0 3.0 0.00 0.00 0.00 69 1018.5
20260904083842 56 21 1.0 4.0 0.00 0.00 0.00 69 1018.5
20260904083335 56 340 0.0 4.0 0.00 0.00 0.00 68 1018.5
20260904082830 56 5 1.0 5.0 0.00 0.00 0.00 68 1018.5
20260904082543 56 31 1.0 5.0 0.00 0.00 0.00 68 1018.4
20260904081818 56 284 0.0 4.0 0.00 0.00 0.00 67 1018.2
20260904081312 56 343 0.0 4.0 0.00 0.00 0.00 67 1018.2
20260904080806 56 349 0.0 4.0 0.00 0.00 0.00 66 1018.4
20260904080300 56 292 0.0 4.0 0.00 0.00 0.00 66 1018.2
20260904080020 57 10 0.0 2.0 0.00 0.00 0.00 66 1018.4
20260904075250 57 20 1.0 5.0 0.00 0.00 0.00 65 1018.2
20260904075226 57 3 1.0 5.0 0.00 0.00 0.00 65 1018.2
20260904074236 57 303 1.0 6.0 0.00 0.00 0.00 65 1018.1
20260904073958 57 273 1.0 6.0 0.00 0.00 0.00 64 1018.1
20260904073224 58 268 1.0 6.0 0.00 0.00 0.00 63 1018.1
20260904072718 58 300 1.0 6.0 0.00 0.00 0.00 63 1018.0
20260904072217 58 299 1.0 7.0 0.00 0.00 0.00 62 1018.1
20260904071706 58 313 2.0 7.0 0.00 0.00 0.00 61 1018.1
20260904071200 58 31 2.0 6.0 0.00 0.00 0.00 61 1017.9
20260904070654 58 293 1.0 6.0 0.00 0.00 0.00 60 1017.8
20260904070147 59 10 1.0 4.0 0.00 0.00 0.00 59 1017.6
20260904065645 59 299 1.0 5.0 0.00 0.00 0.00 59 1017.6
20260904065136 59 295 2.0 5.0 0.00 0.00 0.00 58 1017.5
20260904064630 59 284 1.0 5.0 0.00 0.00 0.00 58 1017.5
20260904064124 60 307 2.0 7.0 0.00 0.00 0.00 57 1017.5
20260904063618 60 259 2.0 7.0 0.00 0.00 0.00 56 1017.5
20260904063113 60 305 1.0 5.0 0.00 0.00 0.00 55 1017.5
20260904062605 61 342 1.0 5.0 0.00 0.00 0.00 53 1017.4
20260904062100 62 315 0.0 5.0 0.00 0.00 0.00 52 1017.3
20260904061554 63 99 1.0 7.0 0.00 0.00 0.00 54 1017.3
20260904061048 62 230 1.0 7.0 0.00 0.00 0.00 54 1017.3
20260904060807 62 294 2.0 8.0 0.00 0.00 0.00 55 1017.3
20260904060036 61 221 3.0 10.0 0.00 0.00 0.00 55 1017.5
20260904055529 61 268 3.0 10.0 0.00 0.00 0.00 55 1017.5
20260904055024 62 244 2.0 9.0 0.00 0.00 0.00 54 1017.6
20260904054518 62 237 3.0 9.0 0.00 0.00 0.00 55 1017.6
20260904054013 61 258 3.0 7.0 0.00 0.00 0.00 57 1017.5
20260904053505 60 246 3.0 7.0 0.00 0.00 0.00 57 1017.6
20260904053000 59 237 3.0 7.0 0.00 0.00 0.00 58 1017.6
20260904052453 59 242 2.0 7.0 0.00 0.00 0.00 57 1017.6
20260904051950 60 268 2.0 8.0 0.00 0.00 0.00 56 1017.6
20260904051438 60 270 2.0 8.0 0.00 0.00 0.00 55 1017.7
20260904050932 60 235 2.0 8.0 0.00 0.00 0.00 55 1017.8
20260904050426 60 306 2.0 8.0 0.00 0.00 0.00 56 1017.7
20260904045923 60 256 2.0 9.0 0.00 0.00 0.00 57 1017.7
20260904045420 60 281 2.0 9.0 0.00 0.00 0.00 56 1017.7
20260904044920 60 254 2.0 6.0 0.00 0.00 0.00 57 1017.7
20260904044420 60 271 2.0 6.0 0.00 0.00 0.00 56 1017.6
20260904043920 60 303 2.0 8.0 0.00 0.00 0.00 56 1017.4
20260904043420 60 273 3.0 9.0 0.00 0.00 0.00 56 1017.4
20260904042920 60 247 3.0 9.0 0.00 0.00 0.00 55 1017.5
20260904042420 60 250 3.0 10.0 0.00 0.00 0.00 55 1017.4
20260904041921 60 291 3.0 10.0 0.00 0.00 0.00 54 1017.4
20260904041420 61 251 3.0 10.0 0.00 0.00 0.00 53 1017.3
20260904040920 61 321 3.0 10.0 0.00 0.00 0.00 53 1017.3
20260904040418 61 279 3.0 10.0 0.00 0.00 0.00 52 1017.3
20260904035918 62 223 3.0 14.0 0.00 0.00 0.00 50 1017.4
20260904035419 63 250 3.0 14.0 0.00 0.00 0.00 51 1017.4
20260904035134 63 310 3.0 9.0 0.00 0.00 0.00 50 1017.6
20260904034416 62 312 4.0 11.0 0.00 0.00 0.00 52 1017.2
20260904033916 63 308 3.0 11.0 0.00 0.00 0.00 49 1017.2
20260904033416 63 289 2.0 11.0 0.00 0.00 0.00 50 1017.3
20260904032914 63 232 3.0 11.0 0.00 0.00 0.00 49 1017.3
20260904032631 63 297 2.0 8.0 0.00 0.00 0.00 50 1017.5
20260904031914 63 243 2.0 8.0 0.00 0.00 0.00 49 1017.5
20260904031413 63 343 3.0 9.0 0.00 0.00 0.00 48 1017.6
20260904030913 63 325 3.0 9.0 0.00 0.00 0.00 48 1017.7
20260904030412 63 260 2.0 7.0 0.00 0.00 0.00 48 1017.8
20260904025912 63 282 2.0 7.0 0.00 0.00 0.00 48 1017.9
20260904025412 63 247 2.0 8.0 0.00 0.00 0.00 49 1017.9
20260904024910 62 265 3.0 10.0 0.00 0.00 0.00 50 1018.2
20260904024900 62 300 3.0 10.0 0.00 0.00 0.00 51 1018.6
20260904024130 62 287 3.0 12.0 0.00 0.00 0.00 50 1018.7
20260904023421 62 340 4.0 15.0 0.00 0.00 0.00 49 1018.8
20260904022909 61 333 4.0 15.0 0.00 0.00 0.00 51 1018.7
20260904022850 62 289 4.0 11.0 0.00 0.00 0.00 51 1018.9
20260904021908 62 289 4.0 12.0 0.00 0.00 0.00 53 1019.1
20260904021408 61 292 5.0 12.0 0.00 0.00 0.00 53 1019.3
20260904021127 60 18 5.0 12.0 0.00 0.00 0.00 52 1019.3
20260904020408 61 355 4.0 12.0 0.00 0.00 0.00 54 1019.4
20260904015908 61 232 3.0 12.0 0.00 0.00 0.00 56 1019.4
20260904015408 61 305 3.0 12.0 0.00 0.00 0.00 54 1019.6
20260904015128 61 333 4.0 12.0 0.00 0.00 0.00 56 1019.6
20260904014408 61 22 4.0 12.0 0.00 0.00 0.00 55 1019.7
20260904013909 61 256 3.0 11.0 0.00 0.00 0.00 54 1019.6
20260904013403 61 324 3.0 9.0 0.00 0.00 0.00 55 1019.5
20260904012904 61 287 3.0 8.0 0.00 0.00 0.00 60 1019.7
20260904012404 60 293 2.0 7.0 0.00 0.00 0.00 58 1019.7
20260904011903 59 310 2.0 7.0 0.00 0.00 0.00 58 1019.8
20260904011404 60 327 2.0 9.0 0.00 0.00 0.00 60 1019.8
20260904010903 60 273 2.0 9.0 0.00 0.00 0.00 59 1019.8
20260904010404 60 17 2.0 6.0 0.00 0.00 0.00 63 1019.9
20260904005904 60 316 2.0 7.0 0.00 0.00 0.00 61 1020.1
20260904005404 60 324 2.0 7.0 0.00 0.00 0.00 64 1020.1
20260904004903 59 161 2.0 6.0 0.00 0.00 0.00 64 1020.1
20260904004404 59 287 1.0 6.0 0.00 0.00 0.00 66 1020.2
20260904003903 59 37 2.0 9.0 0.00 0.00 0.00 68 1020.2
20260904003630 58 260 2.0 9.0 0.00 0.00 0.00 66 1020.1
20260904003125 58 305 1.0 7.0 0.00 0.00 0.00 68 1020.3
20260904002402 58 313 1.0 7.0 0.00 0.00 0.00 71 1020.3
20260904001900 57 289 2.0 8.0 0.00 0.00 0.00 72 1020.3
20260904001357 57 36 2.0 8.0 0.00 0.00 0.00 73 1020.4
20260904000858 56 34 2.0 8.0 0.00 0.00 0.00 75 1020.6
20260904000358 56 35 2.0 8.0 0.00 0.00 0.00 74 1020.7
20260903235857 56 348 1.0 7.0 0.00 0.00 0.00 77 1020.7
20260903235358 56 289 1.0 4.0 0.00 0.00 0.00 76 1020.8
20260903234855 55 26 2.0 9.0 0.00 0.00 0.00 76 1020.9
20260903234357 55 339 3.0 9.0 0.00 0.00 0.00 78 1021.0
20260903233850 55 37 3.0 7.0 0.00 0.00 0.00 81 1021.0
20260903233831 54 83 3.0 8.0 0.00 0.00 0.00 80 1021.0
20260903232840 54 313 3.0 8.0 0.00 0.00 0.00 81 1021.1
20260903232332 54 14 2.0 8.0 0.00 0.00 0.00 80 1021.1
20260903232106 54 26 2.0 5.0 0.00 0.00 0.00 80 1021.1
20260903231540 53 24 1.0 5.0 0.00 0.00 0.00 81 1021.0
20260903230812 53 31 0.0 4.0 0.00 0.00 0.00 83 1021.0
20260903230307 52 308 1.0 3.0 0.00 0.00 0.00 84 1021.0
20260903225801 52 315 1.0 5.0 0.00 0.00 0.00 84 1021.1
20260903225517 51 55 1.0 5.0 0.00 0.00 0.00 84 1021.0
20260903224751 51 48 1.0 3.0 0.00 0.01 0.00 87 1021.1
20260903224247 50 56 0.0 3.0 0.00 0.01 0.00 87 1021.0
20260903224000 50 327 0.0 3.0 0.00 0.01 0.00 88 1021.0
20260903223229 49 39 1.0 3.0 0.00 0.01 0.00 88 1021.0
20260903222723 49 275 0.0 3.0 0.00 0.01 0.00 89 1021.0
20260903222217 49 5 0.0 3.0 0.00 0.01 0.00 90 1021.0
20260903221711 48 310 0.0 3.0 0.00 0.01 0.00 90 1021.0
20260903221205 48 36 0.0 2.0 0.00 0.01 0.00 90 1020.9
20260903220659 47 36 0.0 0.0 0.00 0.01 0.00 90 1021.0
20260903220418 47 36 0.0 0.0 0.00 0.01 0.00 90 1020.9
20260903215649 47 36 0.0 0.0 0.00 0.01 0.00 90 1020.8
20260903215144 47 36 0.0 0.0 0.00 0.01 0.00 90 1020.9
20260903215125 47 36 0.0 0.0 0.00 0.01 0.00 90 1020.8
20260903214129 47 36 0.0 0.0 0.00 0.01 0.00 91 1020.9
20260903213625 47 36 0.0 0.0 0.00 0.01 0.00 92 1020.7
20260903213343 46 36 0.0 0.0 0.00 0.01 0.00 92 1020.7
20260903212612 46 36 0.0 0.0 0.00 0.01 0.00 93 1020.6
20260903212105 45 36 0.0 0.0 0.00 0.01 0.00 93 1020.6
20260903211559 45 36 0.0 0.0 0.00 0.01 0.00 92 1020.5
20260903211055 45 36 0.0 0.0 0.00 0.01 0.00 92 1020.5
20260903210549 45 36 0.0 0.0 0.00 0.01 0.00 92 1020.5
20260903210041 45 36 0.0 0.0 0.00 0.01 0.00 93 1020.5
20260903205535 44 36 0.0 1.0 0.00 0.01 0.00 93 1020.4
20260903205029 44 35 0.0 1.0 0.00 0.01 0.00 92 1020.4
20260903204524 44 48 0.0 0.0 0.00 0.01 0.00 91 1020.3
20260903204017 44 48 0.0 0.0 0.00 0.01 0.00 92 1020.3
20260903203511 44 47 0.0 0.0 0.00 0.01 0.00 91 1020.3
20260903203005 44 48 0.0 0.0 0.00 0.01 0.00 91 1020.3
20260903202459 44 48 0.0 0.0 0.00 0.01 0.00 91 1020.2
20260903201954 44 48 0.0 0.0 0.00 0.01 0.00 90 1020.2
20260903201447 44 48 0.0 0.0 0.00 0.01 0.00 90 1020.2
20260903200950 44 47 0.0 0.0 0.00 0.01 0.00 90 1019.9
20260903200927 44 48 0.0 0.0 0.00 0.02 0.00 89 1019.9
20260903195931 44 47 0.0 0.0 0.00 0.02 0.00 89 1019.9
20260903195526 45 47 0.0 0.0 0.00 0.02 0.00 89 1019.9
20260903194417 45 48 0.0 0.0 0.00 0.02 0.00 89 1019.8
20260903193905 45 48 0.0 0.0 0.00 0.02 0.00 88 1019.7
20260903193359 45 48 0.0 0.0 0.00 0.02 0.00 88 1019.6
20260903192854 45 47 0.0 0.0 0.00 0.02 0.00 87 1019.5
20260903192349 45 48 0.0 0.0 0.00 0.02 0.00 87 1019.4
20260903191847 45 46 0.0 0.0 0.00 0.02 0.00 88 1019.4
20260903191554 45 46 0.0 0.0 0.00 0.02 0.00 86 1019.4